TimeEST,TemperatureF,Dew PointF,Humidity,Sea Level PressureIn,VisibilityMPH,Wind Direction,Wind SpeedMPH,Gust SpeedMPH,PrecipitationIn,Events,Conditions,WindDirDegrees,DateUTC
12:51 AM,30.0,24.1,79,30.29,10.0,NW,10.4,-,N/A,,Overcast,310,2013-01-07 05:51:00
1:51 AM,28.4,23.0,80,30.23,10.0,NNW,15.0,-,N/A,,Overcast,330,2013-01-07 06:51:00
2:51 AM,28.0,21.9,78,30.34,10.0,NNW,8.1,-,N/A,,Overcast,330,2013-01-07 07:51:00
3:51 AM,27.0,19.9,75,30.35,10.0,NW,15.0,-,N/A,,Overcast,320,2013-01-07 08:51:00
3:58 AM,26.6,19.4,74,30.26,10.0,NNW,9.2,-,N/A,,Overcast,330,2013-01-07 08:58:00
4:51 AM,26.1,19.0,75,30.35,10.0,North,9.2,-,N/A,,Overcast,350,2013-01-07 09:51:00
5:51 AM,26.1,18.0,71,30.38,10.0,WNW,5.8,-,N/A,,Overcast,300,2013-01-07 10:51:00
6:51 AM,26.1,19.0,75,30.42,10.0,NW,8.1,-,N/A,,Overcast,320,2013-01-07 11:51:00
7:51 AM,25.0,18.0,75,30.45,10.0,WNW,8.1,-,N/A,,Overcast,300,2013-01-07 12:51:00
8:51 AM,25.0,18.0,75,30.46,10.0,Calm,Calm,-,N/A,,Overcast,0,2013-01-07 13:51:00
9:51 AM,27.0,19.0,72,30.49,10.0,North,3.5,-,N/A,,Overcast,10,2013-01-07 14:51:00
10:49 AM,28.4,19.4,69,30.39,10.0,Calm,Calm,-,N/A,,Scattered Clouds,0,2013-01-07 15:49:00
10:51 AM,28.0,19.9,72,30.48,10.0,Calm,Calm,-,N/A,,Partly Cloudy,0,2013-01-07 15:51:00
11:51 AM,30.2,19.4,64,30.36,10.0,Calm,Calm,-,N/A,,Clear,0,2013-01-07 16:51:00
12:51 PM,34.0,19.9,56,30.42,10.0,Calm,Calm,-,N/A,,Clear,0,2013-01-07 17:51:00
1:51 PM,37.0,21.0,52,30.40,10.0,Calm,Calm,-,N/A,,Clear,0,2013-01-07 18:51:00
2:51 PM,41.0,21.0,45,30.39,10.0,Calm,Calm,-,N/A,,Clear,0,2013-01-07 19:51:00
3:51 PM,39.9,21.0,47,30.38,10.0,SSW,3.5,-,N/A,,Clear,200,2013-01-07 20:51:00
4:51 PM,39.0,21.9,50,30.38,10.0,NNE,4.6,-,N/A,,Clear,30,2013-01-07 21:51:00
5:51 PM,35.1,21.0,57,30.40,10.0,SE,3.5,-,N/A,,Clear,130,2013-01-07 22:51:00
6:51 PM,34.0,21.0,59,30.41,10.0,Calm,Calm,-,N/A,,Clear,0,2013-01-07 23:51:00
7:51 PM,35.1,21.0,57,30.40,10.0,SE,5.8,-,N/A,,Clear,140,2013-01-08 00:51:00
8:51 PM,36.0,21.0,55,30.39,10.0,SE,10.4,-,N/A,,Clear,140,2013-01-08 01:51:00
9:51 PM,36.0,21.9,57,30.37,10.0,SE,11.5,-,N/A,,Clear,140,2013-01-08 02:51:00
10:51 PM,35.1,21.9,59,30.37,10.0,SE,9.2,-,N/A,,Clear,140,2013-01-08 03:51:00
11:51 PM,34.0,21.9,61,30.36,10.0,ESE,8.1,-,N/A,,Clear,120,2013-01-08 04:51:00